Regional Weather Roundup
Issued by NWS

Home | Current Version | Previous Version | Graphics & Text | Print | Product List | Glossary On
Versions: 1 2 3 4 5 6 7 8 9 10 11 12 13 14 15 16 17 18 19 20 21 22 23 24 25 26 27 28 29 30 31 32 33 34 35 36 37 38 39 40 41 42 43 44 45 46 47 48 49 50
000
ASUS43 KLSX 281759
RWRMO

WEATHER SUMMARY FOR MISSOURI
NATIONAL WEATHER SERVICE SPRINGFIELD MO
1200 PM CST WED JAN 28 2015

NOTE: "FAIR" INDICATES FEW OR NO CLOUDS BELOW 12,000 FEET WITH NO
       SIGNIFICANT WEATHER AND/OR OBSTRUCTIONS TO VISIBILITY.
       CURRENT SKY AND/OR WEATHER CONDITIONS ARE NOT AVAILABLE FOR
       CHILLICOTHE AND FARMINGTON.

MOZ001>031-035>038-043-044-053-054-281900-
...NORTHERN AND WESTERN MISSOURI...

CITY           SKY/WX    TMP DP  RH WIND       PRES   REMARKS
KANSAS CTY INT PTSUNNY   66  38  35 S18       29.84F
6HR MIN TEMP:  39; 6HR MAX TEMP:  66;

KANSAS C DTWN  FAIR      67  37  33 S12       29.84F
6HR MIN TEMP:  37; 6HR MAX TEMP:  68;

LEE`S SUMMIT   FAIR      64  37  36 S12       29.88F
6HR MIN TEMP:  41; 6HR MAX TEMP:  64;

ST JOSEPH      FAIR      62  38  40 S14       29.82F
6HR MIN TEMP:  34; 6HR MAX TEMP:  62;

CHILLICOTHE      N/A     54  38  54 S12       29.91F
6HR MIN TEMP:  33; 6HR MAX TEMP:  54;

KIRKSVILLE     FAIR      43  35  73 SE16      29.95F
6HR MIN TEMP:  28; 6HR MAX TEMP:  43;


$$
MOZ066>068-077>081-088>096-101>105-281900-
...SOUTHWEST MISSOURI...

CITY           SKY/WX    TMP DP  RH WIND       PRES   REMARKS
SPRINGFIELD    FAIR      57  36  45 S22       30.01F
6HR MIN TEMP:  38; 6HR MAX TEMP:  57;

JOPLIN         FAIR      71  37  28 S21G36    29.96F
6HR MIN TEMP:  49; 6HR MAX TEMP:  72;


$$
MOZ032>034-039>042-045>050-055>058-069>072-281900-
...CENTRAL MISSOURI...

CITY           SKY/WX    TMP DP  RH WIND       PRES   REMARKS
COLUMBIA       FAIR      50  34  54 S22       30.02F
6HR MIN TEMP:  31; 6HR MAX TEMP:  51;

JEFFERSON CITY FAIR      51  33  50 SE17      30.04F
6HR MIN TEMP:  32; 6HR MAX TEMP:  52;

ROLLA          FAIR      48  33  56 S22       30.06F
6HR MIN TEMP:  32; 6HR MAX TEMP:  48;

SEDALIA        LGT RAIN  61  37  41 S18G29    29.96F
6HR MIN TEMP:  39; 6HR MAX TEMP:  61; 6HR PCP: TRACE;

OSAGE BEACH    FAIR      54  34  47 S17       30.03F

$$
MOZ051-052-059>065-281900-
...EAST CENTRAL MISSOURI...

CITY           SKY/WX    TMP DP  RH WIND       PRES   REMARKS
ST LOUIS INTL  PTSUNNY   43  29  57 S17       30.15F
6HR MIN TEMP:  30; 6HR MAX TEMP:  43;

SPIRIT OF STL  FAIR      45  29  53 SE9G22    30.12F
6HR MIN TEMP:  29; 6HR MAX TEMP:  45;

ST CHARLES     FAIR      42  31  64 SE20      30.14F
6HR MIN TEMP:  29; 6HR MAX TEMP:  42;


$$
MOZ072>076-082>087-097>100-106>115-281900-
...SOUTH CENTRAL AND SOUTHEAST MISSOURI...

CITY           SKY/WX    TMP DP  RH WIND       PRES   REMARKS
CAPE GIRARDEAU FAIR      42  32  67 SE12G18   30.27F
6HR MIN TEMP:  26; 6HR MAX TEMP:  42;

FARMINGTON     FAIR      45  28  53 S17       30.21F
6HR MIN TEMP:  27; 6HR MAX TEMP:  45;

POPLAR BLUFF   FAIR      42  32  67 SE9       30.25F
6HR MIN TEMP:  29; 6HR MAX TEMP:  42;

WEST PLAINS    FAIR      46  31  55 S14       30.17F
6HR MIN TEMP:  31; 6HR MAX TEMP:  46;


$$



USA.gov is the U.S. government's official web portal to all federal, state and local government web resources and services.